Погода в Новоселенгинске

Погода в Новоселенгинске : погода сейчас, прогноз погоды и архив. Всё, что Вы хотите узнать о погоде в Новоселенгинске!

Поиск расширенной информации на нашем сайте:

Другие новости

Новости СМИ2

Главная страница сайта

Новости сайта

03.07.2017

Напоминаем, что на нашем специализированном сайте Метеоцентр.Азия вы можете получить высокодетализированные автоматические прогнозы погоды по пунктам России, СНГ и мира в авиационном формате (включающие направление и скорость ветра, видимость, явления погоды, количество и форму облачности, нижнюю и верхнюю границу облачности).

Рекомендуем: купить хозтовары спб

Погода в Новоселенгинске - сегодня

Время (UTC), дата Ветер
(°,м/с) 
Видим.   Явления Облачность Т
(°С)
Тd
(°С)
f(%) Тe
(°С)
Pmin
(гПа)
dP
(гПа)
Po
(мм)
O2
(г/м3)
Тmin Tmax R s Состояние
почвы
15 09.12.17 030 (СВ) 50000 м  {ливн. осадки}  3/1 600 м кучево-дожд., верхняя 
[Cb cap|Ci fib]
-13.1 -18.3 65 -18  1034.3  0.9  721  307           
18 09.12.17 090 (В) 1{10}  50000 м  {ливн. осадки}  ясно 
-14.4 -20.6 59 -14  1034.9  0.3  722  308           
21 09.12.17 320 (СЗ) 50000 м    ясно 
-19.5 -22.5 77 -20  1036.6  0.1  722  315           
00 10.12.17 090 (В) 50000 м    4/0 средняя 
[Ac trans]
-22.8 -25 82 -23  1038.3  0.7  722  319  -24.7    0.0  равномерный
сухой снег
100% 
03 10.12.17 090 (В) 20000 м    10/0 средняя, верхняя 
[Ac trans|Ci fib]
-22.5 -25.1 79 -25  1038.6  0.3  722  319  -24.9         
06 10.12.17 340 (С) 20000 м    4/0 средняя, верхняя 
[Ac lent|Ci fib]
-18.5 -21.9 75 -21  1036.8  -0.5  722  314           
09 10.12.17 060 (СВ) 20000 м    3/0 средняя, верхняя 
[Ac lent|Ci fib]
-20.2 -23.4 76 -26  1038.4  723  316           
12 10.12.17 050 (СВ) 50000 м    ясно 
-22.3 -24.9 79 -27  1040.4  1.2  724  319    -17.3       
15 10.12.17 050 (СВ) 50000 м    10/0 средняя 
[Ac As]
-23.5 -26 80 -30  1041.6  0.7  724  321           
18 10.12.17 060 (СВ) 50000 м    3/0 средняя 
[Ac trans]
-24.4 -27 79 -31  1042.8  0.9  725  323           
21 10.12.17 050 (СВ) 50000 м    3/0 средняя 
[Ac trans]
-25.9 -28.1 82 -26  1043.4  0.1  725  325           
00 11.12.17 060 (СВ) 50000 м    3/0 средняя 
[Ac trans]
-29.1 -32.1 75 -33  1044.5  725  329  -29.8      равномерный
сухой снег
100% 
03 11.12.17 340 (С) 20000 м    6/3 1000 м верхняя 
[Sc|Ci fib]
-27.6 -30.6 76 -28  1044.5  0.5  725  327           
06 11.12.17 040 (СВ) 20000 м    3/0 верхняя 
[Ci fib]
-23.5 -27.1 72 -28  1041.1  -1.9  724  321           
09 11.12.17 330 (СЗ) 20000 м    4/0 верхняя 
[Ci fib]
-25.3 -28.2 77 -26  1040.7  -0.9  723  323           
12 11.12.17 340 (С) 50000 м    3/0 верхняя 
[Ci fib]
-28.1 -30.6 79 -29  1041.8  0.1  723  327    -23       
15 11.12.17 010 (С) 50000 м    3/0 верхняя 
[Ci fib]
-27.4 -30.6 74 -31  1041.9  0.3  724  326           
18 11.12.17 тихо ()   50000 м    ясно 
-30.2 -33.2 75 -30  1043.3  0.5  724  330           
21 11.12.17 310 (СЗ) 50000 м    ясно 
-31 -34 75 -32  1043.5  0.1  724  331           
00 12.12.17 090 (В) 50000 м    1/0 верхняя 
[Ci fib]
-34.2 -37.7 70 -35  1045.2  0.6  724  336  -34.2      равномерный
сухой снег
100% 
03 12.12.17 тихо ()   20000 м    ясно 
-30.5 -33.9 72 -31  1044.9  0.6  725  331  -34.4         
06 12.12.17 350 (С) 20000 м    4/0 верхняя 
[Ci fib]
-26.1 -29.9 70 -27  1041.5  -1.8  724  324           
09 12.12.17 040 (СВ) 20000 м    6/0 верхняя 
[Ci fib]
-27.2 -31.2 69 -34  1040.6  -1.1  723  325           
12 12.12.17 060 (СВ) 50000 м    8/0 верхняя 
[Ci fib]
-27.8 -31.8 69 -37  1040.1  -0.7  722  326    -25       
15 12.12.17 060 (СВ) 50000 м    6/0 верхняя 
[Ci fib]
-27.3 -31.3 69 -34  1039.9  722  325           
Время (UTC), дата Ветер
(°,м/с) 
Видим.   Явления Облачность Т
(°С)
Тd
(°С)
f(%) Тe
(°С)
Pmin
(гПа)
dP
(гПа)
Po
(мм)
O2
(г/м3)
Тmin Tmax R s Состояние
почвы

Для получения пояснительной информации подведите курсор к названию столбца.

ПОГОДА в Новоселенгинске - архив

Всё, что Вы хотите узнать о погоде в Новоселенгинске - удобно и подробно!

Выберите нужную дату (начиная с 1 января 2015* года) и нажмите кнопку "Найти".
Будут отображены архивные сводки погоды по пункту Новоселенгинск, начиная с указанной даты.


Отображать данные в формате CSV (для использования в таблицах Excel)


Внимание! Наш архив погоды предназначен исключительно для личного некоммерческого использования в познавательных целях. Если Вам необходимы официальные справки о состоянии погоды (для производственных, юридических, коммерческих и т.п. целей), обращайтесь в органы Росгидромета.

*Примечание: данная дата относится к архиву по метеостанциям СССР (Россия, СНГ, Балтия).
Архив по метеостанциям Зарубежной Европы и Азии (кроме Китая) хранится 10 дней, по другим регионам земного шара (Китай, Африка, Америка, Австралия, Океания) - 1 день.

Новоселенгинск - район местоположения метеостанции


Название, широта, долгота, высота метеостанции:
Новоселенгинск 51.1°ш. 106.6°д. 556 м над ур. моря [Российская Федерация]

Дополнительная информация

В oтличие oт бoльшинства пoгoдных сайтoв мы публикуем пoдрoбную метеoинфoрмацию в детальнoм прoфессиoнальнoм фoрмате.

Характеристики температуры и влажнoсти вoздуха измеряются на высoте 2 м в тени вдали oт зданий и деревьев.
Скoрoсть ветра измеряется на высoте 10 м (на урoвне рoста челoвека скoрoсть ветра ниже в 1.5-2 раза). Если метеoстанция нахoдится в гoрoде или в лесу, тo скoрoсть ветра занижена на 2-4 м/с пo сравнению с oткрытым местoм. Скoрoсть ветра над акватoриями крупных рек и oзёр, а также на вершинах хoлмoв на 2-5 м/с выше, чем в oбычных услoвиях.
Атмoсфернoе давление в разных тoчках местнoсти мoжет значительнo oтличаться oт давления на метеoстанции, в зависимoсти oт услoвий рельефа (при пoдъёме на 10 м давление пoнижается примернo на 1 мм рт.ст.).